STARLINK-4274, 52865

Orbit data source: Space-Track

STARLINK-4274, 52865 is a payload satellite owned by SpaceX/Seattle (US) in LEO that was launched on Fri, 17 Jun 2022 UTC via an FALCON 9 launch vehicle from the Air Force Eastern Test Range (AFETR). Payload-class satellites include a variety of spacecraft equipped with specific instruments for various scientific and technological missions. These include communications satellites like Starlink; space stations such as the ISS; scientific satellites like the Hubble; Earth observation satellites from companies like Planet Labs, Umbra, and HawkEye 360; GPS; miniature CubeSats for education and research; and military/defense satellites.

Loading next visibility...
Identifier
52865, 2022-062AM
Orbit
LEO
Country
Flag of USUS
Related business
Manufacturer
SpaceX/Seattle
Mission
Operational Commercial Communications
Bus & Motor
STARLINK, Unknown motor
Mass
297 kg wet, ~275 kg dry
Launch date (UTC)
2022-06-17 (4 years ago)
Launch vehicle
FALCON 9
Launch site
Air Force Eastern Test Range (AFETR)
Object type
Payload
Rocket body
Debris
Shape & HBR
Box + 1 Pan, 10.1 m
Radar Cross Section
13.562 m², Large (>1 m²)

Expand to show TLE details & history
Last TLE update: 2 days ago

TLE from 2 days ago
0 STARLINK-4274
1 52865U 22062AM  26171.32745773 -.00003685  00000-0 -21351-3 0  9992
2 52865  53.1612 283.2463 0001058  96.1262 263.9850 15.08850831221427
Epoch: 2026-06-20T07:51Z
TLE epoch observation values (Epoch: 2026-06-20T07:51:32.347Z)
Latitude
-0.00004°
Longitude
-103.18218°
Altitude
540.679 km
Speed
7.593 km/s
True Right ascension
18h 52m 59s
True Declination
0° 00' 00"
Sunlit
Object was in full shadow at epoch
Visualization orbit readout
Latitude
Unknown
Longitude
Unknown
Altitude
Unknown
Speed
Unknown
Apparent Right ascension
Unknown
Apparent Declination
Unknown
Sunlit
N/A
Visualization observer readout
Local Sidereal Time
21:35:14
Azimuth
Unknown
Elevation
Unknown
Doppler factor
Unknown
Orbital elements
Apogee altitude
540.696 km
Perigee altitude
539.232 km
Semi-major axis
6,918.101 km
Eccentricity
0.00011
Inclination
53.1612°
RAAN
283.2463°
Arg. of periapsis
96.1262°
True anomaly
263.97294°
Mean anomaly
263.985°
Eccentric anomaly
263.97897°
Mean motion
3.77192 °/min
Orbital period
95.44 mins
BSTAR
-0.00021351
Loading maneuver chart data...
Computing Atmospheric mass density...
Loading historical data...
Loading historical data...
Loading historical data...
Loading historical data...
Loading historical data...
Loading historical data...
Loading historical data...

Documentation

Showing up to 5 results
|